CFG7TZ LEPA-EDDH

Flight info

Callsign CFG7TZ
Flight time 2h 22m
Altitude 36000
Route MEROS DCT LAPIT DCT CHELY DCT LUMAS DCT MAXIR DCT LUSOL DCT BODRU DCT OKTET DCT IRMAR DCT KINES DCT VANAS DCT ESOKO DCT GODRA DCT LOKTA DCT TEDGO DCT HAREM DCT LOHRE DCT ELNAT P605 NOLGO NOLGO3P
Aircraft A21N/M-SDE3FGHIRWY/LB1

Departure

Time 2026-04-23 16:42
Airport Palma de Mallorca Airport (LEPA)

Arrival

Time 2026-04-23 19:04
Airport Hamburg Helmut Schmidt Airport (EDDH)
Time Latitude Longitude Altitude Speed Heading
2026-04-23 16:04 39.55024 2.73491 42 ft 0 kts 165°
2026-04-23 16:31 39.55035 2.73487 42 ft 2 kts 165°
2026-04-23 16:31 39.55045 2.73484 41 ft 0 kts 165°
2026-04-23 16:32 39.55057 2.73476 41 ft 2 kts 126°
2026-04-23 16:32 39.55062 2.73457 40 ft 2 kts 88°
2026-04-23 16:32 39.55060 2.73444 39 ft 0 kts 62°
2026-04-23 16:32 39.55056 2.73436 39 ft 1 kts 57°
2026-04-23 16:33 39.55056 2.73435 39 ft 0 kts 58°
2026-04-23 16:34 39.55056 2.73436 39 ft 0 kts 58°
2026-04-23 16:35 39.55065 2.73454 40 ft 3 kts 59°
2026-04-23 16:35 39.55084 2.73495 43 ft 7 kts 59°
2026-04-23 16:35 39.55117 2.73565 49 ft 10 kts 58°
2026-04-23 16:35 39.55149 2.73632 52 ft 7 kts 59°
2026-04-23 16:36 39.55175 2.73692 53 ft 7 kts 66°
2026-04-23 16:36 39.55168 2.73759 52 ft 8 kts 99°
2026-04-23 16:36 39.55176 2.73837 52 ft 9 kts 114°
2026-04-23 16:36 39.55123 2.73892 52 ft 10 kts 148°
2026-04-23 16:37 39.55061 2.73942 51 ft 11 kts 149°
2026-04-23 16:37 39.54987 2.74000 48 ft 13 kts 148°
2026-04-23 16:37 39.54899 2.74069 44 ft 16 kts 148°
2026-04-23 16:37 39.54816 2.74125 40 ft 12 kts 178°
2026-04-23 16:38 39.54755 2.74057 42 ft 12 kts 238°
2026-04-23 16:38 39.54705 2.73951 43 ft 15 kts 239°
2026-04-23 16:38 39.54649 2.73832 43 ft 15 kts 238°
2026-04-23 16:38 39.54590 2.73709 42 ft 16 kts 239°
2026-04-23 16:39 39.54532 2.73585 43 ft 15 kts 239°
2026-04-23 16:39 39.54481 2.73478 46 ft 13 kts 238°
2026-04-23 16:39 39.54434 2.73379 46 ft 13 kts 239°
2026-04-23 16:39 39.54380 2.73264 44 ft 15 kts 238°
2026-04-23 16:40 39.54321 2.73140 43 ft 16 kts 238°
2026-04-23 16:40 39.54248 2.73060 42 ft 14 kts 163°
2026-04-23 16:40 39.54216 2.73172 43 ft 13 kts 94°
2026-04-23 16:40 39.54208 2.73283 43 ft 9 kts 102°
2026-04-23 16:41 39.54214 2.73359 43 ft 8 kts 62°
2026-04-23 16:41 39.54293 2.73530 49 ft 52 kts 59°
2026-04-23 16:41 39.54610 2.74198 40 ft 120 kts 58°
2026-04-23 16:41 39.55154 2.75341 80 ft 170 kts 58°
2026-04-23 16:42 39.55750 2.76598 840 ft 162 kts 60°
2026-04-23 16:42 39.56335 2.77813 1576 ft 161 kts 60°
2026-04-23 16:42 39.56954 2.79008 2058 ft 165 kts 59°
2026-04-23 16:42 39.57621 2.80292 2336 ft 178 kts 59°
2026-04-23 16:43 39.58336 2.81680 2619 ft 193 kts 59°
2026-04-23 16:43 39.59105 2.83180 2906 ft 208 kts 59°
2026-04-23 16:43 39.59935 2.84822 3134 ft 228 kts 59°
2026-04-23 16:43 39.60825 2.86606 3464 ft 245 kts 59°
2026-04-23 16:44 39.61760 2.88506 3980 ft 254 kts 59°
2026-04-23 16:44 39.62700 2.90475 4658 ft 258 kts 60°
2026-04-23 16:44 39.63560 2.92519 5276 ft 262 kts 61°
2026-04-23 16:44 39.64431 2.94603 5898 ft 267 kts 60°
2026-04-23 16:45 39.65317 2.96737 6590 ft 272 kts 60°
2026-04-23 16:45 39.66217 2.98898 7220 ft 277 kts 59°
2026-04-23 16:45 39.67136 3.01099 7822 ft 282 kts 59°
2026-04-23 16:45 39.68081 3.03361 8422 ft 286 kts 59°
2026-04-23 16:46 39.69035 3.05641 9021 ft 291 kts 58°
2026-04-23 16:46 39.70002 3.07954 9604 ft 296 kts 58°
2026-04-23 16:46 39.70981 3.10298 10184 ft 300 kts 58°
2026-04-23 16:46 39.72010 3.12677 10594 ft 309 kts 52°
2026-04-23 16:47 39.73568 3.14648 10847 ft 314 kts 28°
2026-04-23 16:47 39.75499 3.16062 11125 ft 326 kts 24°
2026-04-23 16:47 39.77539 3.17508 11386 ft 341 kts 26°
2026-04-23 16:47 39.79613 3.19096 11783 ft 350 kts 28°
2026-04-23 16:48 39.81696 3.20721 12358 ft 351 kts 26°
2026-04-23 16:48 39.83807 3.22270 12945 ft 353 kts 25°
2026-04-23 16:48 39.85958 3.23832 13504 ft 355 kts 25°
2026-04-23 16:48 39.88126 3.25413 14045 ft 357 kts 26°
2026-04-23 16:49 39.89567 3.26469 14398 ft 359 kts 26°
2026-04-23 16:49 39.92475 3.28609 15079 ft 362 kts 26°
2026-04-23 16:49 39.94659 3.30221 15573 ft 364 kts 26°
2026-04-23 16:49 39.96848 3.31841 16061 ft 366 kts 26°
2026-04-23 16:50 39.99075 3.33490 16543 ft 368 kts 26°
2026-04-23 16:50 40.01315 3.35152 17033 ft 370 kts 26°
2026-04-23 16:50 40.03554 3.36816 17512 ft 371 kts 25°
2026-04-23 16:50 40.05769 3.38463 17966 ft 372 kts 25°
2026-04-23 16:51 40.08034 3.40146 18407 ft 374 kts 25°
2026-04-23 16:51 40.10314 3.41845 18827 ft 377 kts 25°
2026-04-23 16:51 40.12563 3.43521 19241 ft 379 kts 25°
2026-04-23 16:51 40.14880 3.45249 19660 ft 381 kts 25°
2026-04-23 16:52 40.17183 3.46967 20073 ft 383 kts 25°
2026-04-23 16:52 40.19496 3.48696 20468 ft 385 kts 25°
2026-04-23 16:52 40.21794 3.50413 20849 ft 387 kts 25°
2026-04-23 16:52 40.24134 3.52165 21226 ft 389 kts 25°
2026-04-23 16:53 40.26483 3.53925 21590 ft 391 kts 25°
2026-04-23 16:53 40.28841 3.55692 21983 ft 392 kts 25°
2026-04-23 16:53 40.31218 3.57475 22342 ft 393 kts 25°
2026-04-23 16:53 40.33598 3.59262 22686 ft 395 kts 24°
2026-04-23 16:54 40.35990 3.61059 23039 ft 396 kts 24°
2026-04-23 16:54 40.38362 3.62842 23360 ft 398 kts 24°
2026-04-23 16:54 40.40771 3.64654 23689 ft 400 kts 24°
2026-04-23 16:54 40.43185 3.66472 24023 ft 401 kts 25°
2026-04-23 16:55 40.45619 3.68306 24330 ft 403 kts 25°
2026-04-23 16:55 40.48059 3.70146 24636 ft 405 kts 25°
2026-04-23 16:55 40.50481 3.71975 24939 ft 406 kts 25°
2026-04-23 16:55 40.52921 3.73819 25239 ft 407 kts 25°
2026-04-23 16:56 40.55379 3.75677 25514 ft 409 kts 25°
2026-04-23 16:56 40.57846 3.77545 25790 ft 410 kts 25°
2026-04-23 16:56 40.60317 3.79418 26065 ft 412 kts 25°
2026-04-23 16:56 40.62792 3.81295 26319 ft 413 kts 25°
2026-04-23 16:57 40.65282 3.83187 26565 ft 415 kts 25°
2026-04-23 16:57 40.67809 3.85108 26814 ft 416 kts 25°
2026-04-23 16:57 40.70307 3.87007 27063 ft 417 kts 25°
2026-04-23 16:57 40.72831 3.88928 27315 ft 418 kts 25°
2026-04-23 16:58 40.75358 3.90850 27553 ft 420 kts 25°
2026-04-23 16:58 40.77869 3.92762 27786 ft 421 kts 25°
2026-04-23 16:58 40.80409 3.94699 28011 ft 422 kts 24°
2026-04-23 16:58 40.82952 3.96639 28212 ft 424 kts 24°
2026-04-23 16:59 40.85510 3.98594 28417 ft 426 kts 25°
2026-04-23 16:59 40.88060 4.00546 28635 ft 427 kts 24°
2026-04-23 16:59 40.90628 4.02513 28851 ft 428 kts 25°
2026-04-23 16:59 40.93196 4.04480 29063 ft 429 kts 25°
2026-04-23 17:00 40.95799 4.06479 29355 ft 428 kts 24°
2026-04-23 17:00 40.98366 4.08452 29660 ft 427 kts 25°
2026-04-23 17:00 41.00932 4.10427 29940 ft 426 kts 24°
2026-04-23 17:00 41.03480 4.12388 30209 ft 426 kts 24°
2026-04-23 17:01 41.06063 4.14375 30470 ft 425 kts 24°
2026-04-23 17:01 41.08612 4.16337 30730 ft 425 kts 24°
2026-04-23 17:01 41.11166 4.18308 31019 ft 424 kts 24°
2026-04-23 17:01 41.13707 4.20270 31337 ft 423 kts 24°
2026-04-23 17:02 41.15384 4.21566 31539 ft 422 kts 24°
2026-04-23 17:02 41.18782 4.24195 31907 ft 421 kts 24°
2026-04-23 17:02 41.21310 4.26145 32181 ft 421 kts 24°
2026-04-23 17:02 41.23838 4.28094 32426 ft 421 kts 24°
2026-04-23 17:03 41.26344 4.30026 32637 ft 422 kts 24°
2026-04-23 17:03 41.28883 4.31988 32832 ft 423 kts 24°
2026-04-23 17:03 41.31429 4.33956 33030 ft 424 kts 24°
2026-04-23 17:03 41.33987 4.35938 33237 ft 424 kts 24°
2026-04-23 17:04 41.36525 4.37905 33455 ft 424 kts 24°
2026-04-23 17:04 41.39062 4.39874 33668 ft 424 kts 24°
2026-04-23 17:04 41.41604 4.41849 33866 ft 425 kts 24°
2026-04-23 17:04 41.44179 4.43851 34063 ft 425 kts 24°
2026-04-23 17:05 41.49275 4.47818 34145 ft 427 kts 24°
2026-04-23 17:05 41.54425 4.51837 34149 ft 428 kts 24°
2026-04-23 17:06 41.59525 4.55826 34150 ft 428 kts 24°
2026-04-23 17:06 41.64645 4.59839 34155 ft 425 kts 24°
2026-04-23 17:07 41.69746 4.63841 34152 ft 426 kts 24°
2026-04-23 17:07 41.74834 4.67849 34155 ft 428 kts 25°
2026-04-23 17:08 41.79932 4.71936 34159 ft 427 kts 25°
2026-04-23 17:08 41.85009 4.76019 34156 ft 426 kts 25°
2026-04-23 17:09 41.90068 4.80092 34158 ft 426 kts 25°
2026-04-23 17:09 41.95147 4.84188 34161 ft 425 kts 25°
2026-04-23 17:10 42.00208 4.88281 34160 ft 427 kts 25°
2026-04-23 17:10 42.02767 4.90350 34292 ft 428 kts 25°
2026-04-23 17:10 42.05281 4.92387 34560 ft 426 kts 25°
2026-04-23 17:11 42.07815 4.94443 34831 ft 424 kts 25°
2026-04-23 17:11 42.10350 4.96502 35072 ft 423 kts 25°
2026-04-23 17:11 42.12841 4.98526 35312 ft 422 kts 25°
2026-04-23 17:11 42.15341 5.00561 35553 ft 420 kts 25°
2026-04-23 17:12 42.17863 5.02613 35762 ft 420 kts 25°
2026-04-23 17:12 42.20343 5.04632 35940 ft 420 kts 25°
2026-04-23 17:12 42.22831 5.06660 36116 ft 420 kts 25°
2026-04-23 17:12 42.25340 5.08707 36158 ft 422 kts 25°
2026-04-23 17:13 42.30375 5.12818 36167 ft 428 kts 25°
2026-04-23 17:13 42.35463 5.16984 36166 ft 430 kts 25°
2026-04-23 17:14 42.40585 5.21189 36169 ft 430 kts 25°
2026-04-23 17:14 42.45666 5.25368 36167 ft 430 kts 25°
2026-04-23 17:15 42.50777 5.29580 36167 ft 429 kts 25°
2026-04-23 17:15 42.55843 5.33759 36169 ft 429 kts 25°
2026-04-23 17:16 42.58403 5.35876 35878 ft 429 kts 25°
2026-04-23 17:16 42.60930 5.37967 36034 ft 427 kts 25°
2026-04-23 17:16 42.66060 5.41969 36139 ft 425 kts 20°
2026-04-23 17:17 42.71440 5.45287 36163 ft 425 kts 18°
2026-04-23 17:17 42.76812 5.48577 36169 ft 426 kts 19°
2026-04-23 17:18 42.84910 5.53596 36174 ft 425 kts 19°
2026-04-23 17:19 42.90278 5.56946 36170 ft 426 kts 19°
2026-04-23 17:19 42.95636 5.60297 36170 ft 425 kts 19°
2026-04-23 17:20 43.00990 5.63656 36167 ft 425 kts 19°
2026-04-23 17:21 43.11760 5.70429 36163 ft 427 kts 20°
2026-04-23 17:21 43.19821 5.75515 36165 ft 427 kts 20°
2026-04-23 17:22 43.27895 5.80625 36164 ft 427 kts 20°
2026-04-23 17:23 43.36000 5.85773 36163 ft 429 kts 21°
2026-04-23 17:24 43.44120 5.90948 36170 ft 429 kts 21°
2026-04-23 17:24 43.52235 5.96088 36169 ft 430 kts 21°
2026-04-23 17:25 43.60395 6.01277 36166 ft 432 kts 21°
2026-04-23 17:26 43.71307 6.08248 36165 ft 432 kts 22°
2026-04-23 17:27 43.79505 6.13495 36177 ft 434 kts 22°
2026-04-23 17:27 43.84981 6.17006 36175 ft 435 kts 23°
2026-04-23 17:28 43.90451 6.20528 36175 ft 435 kts 22°
2026-04-23 17:28 43.95936 6.24064 36175 ft 435 kts 23°
2026-04-23 17:29 44.01449 6.27626 36173 ft 436 kts 23°
2026-04-23 17:30 44.08769 6.32369 36178 ft 436 kts 24°
2026-04-23 17:30 44.17905 6.38307 36197 ft 437 kts 25°
2026-04-23 17:31 44.23411 6.41880 36192 ft 438 kts 22°
2026-04-23 17:31 44.29180 6.44505 36204 ft 438 kts 17°
2026-04-23 17:32 44.35014 6.46902 36212 ft 440 kts 17°
2026-04-23 17:32 44.40880 6.49366 36213 ft 442 kts 17°
2026-04-23 17:33 44.46763 6.51869 36211 ft 443 kts 18°
2026-04-23 17:33 44.52646 6.54315 36214 ft 445 kts 17°
2026-04-23 17:34 44.58607 6.56693 36213 ft 446 kts 17°
2026-04-23 17:35 44.67565 6.60287 36225 ft 446 kts 17°
2026-04-23 17:35 44.76498 6.63899 36236 ft 448 kts 17°
2026-04-23 17:36 44.82535 6.66345 36242 ft 449 kts 18°
2026-04-23 17:36 44.88559 6.68785 36242 ft 450 kts 18°
2026-04-23 17:37 44.94561 6.71225 36235 ft 451 kts 18°
2026-04-23 17:38 45.03568 6.74899 36245 ft 451 kts 18°
2026-04-23 17:38 45.09632 6.77380 36249 ft 451 kts 18°
2026-04-23 17:39 45.15657 6.79850 36243 ft 451 kts 18°
2026-04-23 17:39 45.21697 6.82334 36241 ft 451 kts 18°
2026-04-23 17:40 45.27722 6.84817 36245 ft 452 kts 19°
2026-04-23 17:40 45.33757 6.87310 36248 ft 452 kts 18°
2026-04-23 17:41 45.39780 6.89799 36252 ft 452 kts 19°
2026-04-23 17:41 45.48797 6.93520 36254 ft 451 kts 18°
2026-04-23 17:42 45.57811 6.97240 36246 ft 451 kts 19°
2026-04-23 17:43 45.63839 6.99740 36243 ft 451 kts 19°
2026-04-23 17:43 45.69842 7.02236 36242 ft 451 kts 19°
2026-04-23 17:44 45.75875 7.04749 36250 ft 451 kts 19°
2026-04-23 17:44 45.84848 7.08716 36250 ft 450 kts 23°
2026-04-23 17:45 45.87752 7.10388 36556 ft 449 kts 26°
2026-04-23 17:45 45.93289 7.14367 36290 ft 443 kts 32°
2026-04-23 17:46 46.01251 7.21080 36260 ft 443 kts 33°
2026-04-23 17:46 46.06529 7.25569 36253 ft 443 kts 33°
2026-04-23 17:47 46.11825 7.30074 36251 ft 442 kts 33°
2026-04-23 17:47 46.17129 7.34591 36133 ft 441 kts 33°
2026-04-23 17:48 46.19787 7.36860 36189 ft 442 kts 33°
2026-04-23 17:48 46.25077 7.41383 36218 ft 442 kts 33°
2026-04-23 17:49 46.30342 7.45893 36230 ft 442 kts 33°
2026-04-23 17:49 46.35629 7.50433 36246 ft 442 kts 33°
2026-04-23 17:50 46.40902 7.54971 36254 ft 441 kts 33°
2026-04-23 17:50 46.48809 7.61794 36257 ft 440 kts 33°
2026-04-23 17:51 46.54031 7.66318 36262 ft 439 kts 34°
2026-04-23 17:52 46.61904 7.73206 36261 ft 438 kts 34°
2026-04-23 17:52 46.69625 7.80213 36262 ft 437 kts 35°
2026-04-23 17:53 46.77362 7.87259 36251 ft 437 kts 35°
2026-04-23 17:54 46.82505 7.91950 36250 ft 437 kts 35°
2026-04-23 17:54 46.90178 7.98967 36587 ft 436 kts 35°
2026-04-23 17:55 46.95306 8.03670 36091 ft 433 kts 35°
2026-04-23 17:55 46.97859 8.06016 36176 ft 433 kts 35°
2026-04-23 17:56 47.02956 8.10706 36350 ft 434 kts 35°
2026-04-23 17:56 47.10603 8.17765 36259 ft 433 kts 35°
2026-04-23 17:57 47.15707 8.22489 36258 ft 432 kts 35°
2026-04-23 17:58 47.23336 8.29571 36252 ft 432 kts 35°
2026-04-23 17:58 47.28400 8.34286 36256 ft 431 kts 35°
2026-04-23 17:59 47.33452 8.38998 36255 ft 430 kts 35°
2026-04-23 17:59 47.38510 8.43730 36258 ft 430 kts 35°
2026-04-23 18:00 47.43564 8.48466 36261 ft 430 kts 35°
2026-04-23 18:00 47.48586 8.53187 36262 ft 430 kts 35°
2026-04-23 18:01 47.53612 8.57920 36266 ft 430 kts 35°
2026-04-23 18:01 47.58646 8.62670 36265 ft 429 kts 36°
2026-04-23 18:02 47.62833 8.66633 36267 ft 428 kts 36°
2026-04-23 18:02 47.68706 8.72201 36259 ft 428 kts 36°
2026-04-23 18:03 47.73683 8.76931 36259 ft 428 kts 36°
2026-04-23 18:03 47.78686 8.81697 36260 ft 428 kts 36°
2026-04-23 18:04 47.83718 8.86503 36262 ft 429 kts 36°
2026-04-23 18:04 47.88697 8.91269 36262 ft 428 kts 36°
2026-04-23 18:05 47.93691 8.96061 36262 ft 428 kts 36°
2026-04-23 18:05 47.98705 9.00885 36262 ft 428 kts 36°
2026-04-23 18:06 48.03670 9.05673 36260 ft 428 kts 36°
2026-04-23 18:06 48.08659 9.10485 36260 ft 428 kts 35°
2026-04-23 18:07 48.13942 9.14706 36261 ft 431 kts 28°
2026-04-23 18:07 48.19597 9.17821 36262 ft 435 kts 20°
2026-04-23 18:08 48.24554 9.19516 36263 ft 440 kts 14°
2026-04-23 18:08 48.31689 9.20846 36262 ft 441 kts 11°
2026-04-23 18:09 48.37779 9.21851 36261 ft 441 kts 11°
2026-04-23 18:09 48.43870 9.22869 36258 ft 442 kts 11°
2026-04-23 18:10 48.49949 9.23893 36256 ft 442 kts 11°
2026-04-23 18:10 48.56072 9.24929 36260 ft 441 kts 11°
2026-04-23 18:11 48.62182 9.25967 36265 ft 442 kts 11°
2026-04-23 18:11 48.68304 9.26912 36263 ft 442 kts 10°
2026-04-23 18:12 48.74413 9.27830 36262 ft 443 kts 10°
2026-04-23 18:12 48.80525 9.28760 36259 ft 442 kts 10°
2026-04-23 18:13 48.86636 9.29696 36248 ft 442 kts 10°
2026-04-23 18:13 48.92733 9.30632 36245 ft 442 kts 10°
2026-04-23 18:14 48.98901 9.31585 36244 ft 442 kts 10°
2026-04-23 18:14 49.05017 9.32530 36243 ft 442 kts 10°
2026-04-23 18:15 49.11128 9.33477 36245 ft 443 kts 10°
2026-04-23 18:15 49.17269 9.34432 36244 ft 443 kts 10°
2026-04-23 18:16 49.23396 9.35387 36243 ft 443 kts 10°
2026-04-23 18:16 49.29538 9.36346 36242 ft 443 kts 10°
2026-04-23 18:17 49.38745 9.37788 36242 ft 443 kts 10°
2026-04-23 18:17 49.44874 9.38753 36243 ft 443 kts
2026-04-23 18:18 49.50986 9.39718 36240 ft 443 kts
2026-04-23 18:18 49.57117 9.40687 36243 ft 443 kts
2026-04-23 18:19 49.63256 9.41658 36243 ft 443 kts
2026-04-23 18:19 49.69341 9.42623 36240 ft 443 kts
2026-04-23 18:20 49.75503 9.43606 36241 ft 442 kts
2026-04-23 18:20 49.81614 9.44585 36241 ft 443 kts
2026-04-23 18:21 49.87706 9.45563 36239 ft 443 kts
2026-04-23 18:21 49.93814 9.46546 36241 ft 442 kts
2026-04-23 18:22 49.99954 9.47536 36242 ft 442 kts
2026-04-23 18:22 50.06063 9.48525 36241 ft 443 kts
2026-04-23 18:23 50.15211 9.50110 36240 ft 442 kts
2026-04-23 18:24 50.24419 9.51741 36241 ft 442 kts
2026-04-23 18:25 50.33587 9.53368 36242 ft 442 kts
2026-04-23 18:25 50.39695 9.54454 36244 ft 442 kts
2026-04-23 18:26 50.45773 9.55538 36246 ft 442 kts
2026-04-23 18:26 50.51902 9.56633 36252 ft 442 kts
2026-04-23 18:27 50.57995 9.57725 36253 ft 442 kts
2026-04-23 18:27 50.64082 9.58818 36255 ft 442 kts
2026-04-23 18:28 50.70205 9.59922 36258 ft 442 kts
2026-04-23 18:28 50.76314 9.61027 36259 ft 442 kts
2026-04-23 18:29 50.82407 9.62129 36260 ft 442 kts
2026-04-23 18:29 50.88506 9.63236 36261 ft 442 kts
2026-04-23 18:30 50.94576 9.64342 36264 ft 442 kts
2026-04-23 18:30 51.00714 9.65464 36264 ft 441 kts
2026-04-23 18:31 51.06800 9.66578 36266 ft 441 kts
2026-04-23 18:31 51.12884 9.67696 36264 ft 441 kts
2026-04-23 18:32 51.18897 9.68839 36264 ft 441 kts
2026-04-23 18:32 51.24992 9.70021 36265 ft 441 kts
2026-04-23 18:33 51.31074 9.71207 36266 ft 441 kts
2026-04-23 18:33 51.37162 9.72395 36259 ft 441 kts
2026-04-23 18:34 51.43240 9.73583 36261 ft 441 kts
2026-04-23 18:34 51.49332 9.74778 36259 ft 441 kts
2026-04-23 18:35 51.55405 9.75971 36261 ft 442 kts
2026-04-23 18:35 51.61493 9.77172 36258 ft 442 kts
2026-04-23 18:36 51.67593 9.78378 36255 ft 441 kts
2026-04-23 18:36 51.73680 9.79584 36256 ft 442 kts
2026-04-23 18:37 51.79752 9.80792 36253 ft 442 kts
2026-04-23 18:37 51.85839 9.82005 36245 ft 441 kts
2026-04-23 18:38 51.91940 9.83223 35717 ft 444 kts
2026-04-23 18:38 51.95007 9.83837 34954 ft 445 kts
2026-04-23 18:38 51.98061 9.84450 34217 ft 447 kts
2026-04-23 18:38 52.01150 9.85071 33557 ft 448 kts
2026-04-23 18:39 52.04250 9.85693 32897 ft 450 kts
2026-04-23 18:39 52.07379 9.86323 32235 ft 451 kts
2026-04-23 18:39 52.10477 9.86948 31583 ft 452 kts
2026-04-23 18:39 52.13580 9.87575 30932 ft 453 kts
2026-04-23 18:40 52.16733 9.88213 30272 ft 454 kts
2026-04-23 18:40 52.19846 9.88844 29612 ft 455 kts
2026-04-23 18:40 52.23030 9.89491 28939 ft 457 kts
2026-04-23 18:40 52.26189 9.90132 28275 ft 455 kts
2026-04-23 18:41 52.29305 9.90765 27887 ft 444 kts
2026-04-23 18:41 52.32314 9.91376 27642 ft 432 kts
2026-04-23 18:41 52.35262 9.91977 27164 ft 426 kts
2026-04-23 18:41 52.38191 9.92577 26565 ft 422 kts
2026-04-23 18:42 52.41082 9.93168 25983 ft 419 kts
2026-04-23 18:42 52.43957 9.93758 25424 ft 415 kts
2026-04-23 18:42 52.46822 9.94347 24853 ft 411 kts
2026-04-23 18:42 52.49601 9.94917 24308 ft 407 kts
2026-04-23 18:43 52.52411 9.95495 23758 ft 404 kts
2026-04-23 18:43 52.55170 9.96064 23212 ft 400 kts
2026-04-23 18:43 52.57894 9.96851 22652 ft 397 kts 11°
2026-04-23 18:43 52.60573 9.97803 22107 ft 394 kts 12°
2026-04-23 18:44 52.63255 9.98778 21555 ft 391 kts 12°
2026-04-23 18:44 52.65877 9.99723 21014 ft 388 kts 12°
2026-04-23 18:44 52.68494 10.00654 20478 ft 385 kts 12°
2026-04-23 18:44 52.71097 10.01574 19980 ft 382 kts 12°
2026-04-23 18:45 52.73670 10.02479 19486 ft 380 kts 11°
2026-04-23 18:45 52.76247 10.03382 18992 ft 377 kts 11°
2026-04-23 18:45 52.78804 10.04278 18497 ft 374 kts 11°
2026-04-23 18:45 52.81359 10.05173 17999 ft 372 kts 11°
2026-04-23 18:46 52.83880 10.06056 17511 ft 370 kts 11°
2026-04-23 18:46 52.86370 10.06928 17028 ft 366 kts 11°
2026-04-23 18:46 52.88833 10.07791 16547 ft 363 kts 11°
2026-04-23 18:46 52.91282 10.08650 16061 ft 360 kts 11°
2026-04-23 18:47 52.93729 10.09511 15574 ft 356 kts 11°
2026-04-23 18:47 52.96143 10.10361 15086 ft 353 kts 11°
2026-04-23 18:47 52.98514 10.11196 14653 ft 349 kts 11°
2026-04-23 18:47 53.00902 10.12038 14285 ft 348 kts 11°
2026-04-23 18:48 53.03256 10.12868 13930 ft 346 kts 11°
2026-04-23 18:48 53.05587 10.13692 13590 ft 344 kts 11°
2026-04-23 18:48 53.07911 10.14515 13232 ft 341 kts 11°
2026-04-23 18:48 53.10212 10.15330 12878 ft 339 kts 11°
2026-04-23 18:49 53.12541 10.16155 12519 ft 336 kts 11°
2026-04-23 18:49 53.14802 10.16957 12148 ft 334 kts 11°
2026-04-23 18:49 53.17059 10.17759 11781 ft 331 kts 11°
2026-04-23 18:49 53.19309 10.18561 11419 ft 329 kts 10°
2026-04-23 18:50 53.20798 10.19091 11172 ft 327 kts 10°
2026-04-23 18:50 53.23739 10.20139 10714 ft 321 kts 10°
2026-04-23 18:50 53.25883 10.20905 10530 ft 309 kts 10°
2026-04-23 18:50 53.27951 10.21645 10338 ft 299 kts 10°
2026-04-23 18:51 53.29942 10.22358 10151 ft 288 kts 10°
2026-04-23 18:51 53.31855 10.23044 9971 ft 279 kts 10°
2026-04-23 18:51 53.33731 10.23718 9791 ft 269 kts
2026-04-23 18:51 53.35525 10.24362 9574 ft 261 kts
2026-04-23 18:52 53.37278 10.24989 9229 ft 259 kts
2026-04-23 18:52 53.39039 10.25620 8846 ft 258 kts
2026-04-23 18:52 53.40797 10.26250 8467 ft 256 kts
2026-04-23 18:52 53.42518 10.26869 8100 ft 254 kts
2026-04-23 18:53 53.44230 10.27486 7842 ft 252 kts
2026-04-23 18:53 53.45944 10.28103 7588 ft 252 kts
2026-04-23 18:53 53.47672 10.28727 7336 ft 251 kts
2026-04-23 18:53 53.49379 10.29343 7080 ft 250 kts
2026-04-23 18:54 53.51055 10.29949 6820 ft 248 kts
2026-04-23 18:54 53.52731 10.30555 6458 ft 246 kts
2026-04-23 18:54 53.54412 10.31164 6105 ft 244 kts
2026-04-23 18:54 53.56057 10.31758 5850 ft 244 kts
2026-04-23 18:55 53.57711 10.32356 5599 ft 243 kts
2026-04-23 18:55 53.59360 10.32954 5415 ft 243 kts
2026-04-23 18:55 53.61011 10.33553 5232 ft 242 kts
2026-04-23 18:55 53.62657 10.34152 5049 ft 242 kts
2026-04-23 18:56 53.63753 10.34551 4970 ft 241 kts
2026-04-23 18:56 53.65905 10.35433 4960 ft 236 kts 12°
2026-04-23 18:56 53.67417 10.36246 4946 ft 221 kts 14°
2026-04-23 18:56 53.68838 10.37058 4827 ft 211 kts 14°
2026-04-23 18:57 53.70220 10.37855 4538 ft 209 kts 14°
2026-04-23 18:57 53.71590 10.38644 4260 ft 207 kts 12°
2026-04-23 18:57 53.72986 10.38777 3975 ft 201 kts 342°
2026-04-23 18:57 53.74220 10.37697 3749 ft 201 kts 327°
2026-04-23 18:58 53.75339 10.36336 3522 ft 196 kts 324°
2026-04-23 18:58 53.76378 10.34946 3439 ft 183 kts 319°
2026-04-23 18:58 53.76954 10.33033 3257 ft 193 kts 284°
2026-04-23 18:58 53.76826 10.30745 3106 ft 200 kts 266°
2026-04-23 18:59 53.76525 10.28471 2973 ft 199 kts 264°
2026-04-23 18:59 53.76076 10.26218 2972 ft 206 kts 254°
2026-04-23 18:59 53.75351 10.24089 2969 ft 211 kts 244°
2026-04-23 18:59 53.74485 10.22064 2979 ft 212 kts 241°
2026-04-23 19:00 53.73600 10.20180 2948 ft 196 kts 239°
2026-04-23 19:00 53.72746 10.18442 2876 ft 188 kts 239°
2026-04-23 19:00 53.71923 10.16789 2644 ft 181 kts 239°
2026-04-23 19:00 53.71130 10.15191 2399 ft 179 kts 239°
2026-04-23 19:01 53.70330 10.13580 2160 ft 178 kts 240°
2026-04-23 19:01 53.69539 10.11984 1919 ft 176 kts 240°
2026-04-23 19:01 53.68782 10.10472 1692 ft 160 kts 240°
2026-04-23 19:01 53.68097 10.09094 1465 ft 152 kts 240°
2026-04-23 19:02 53.67642 10.08168 1327 ft 151 kts 240°
2026-04-23 19:02 53.66750 10.06339 1074 ft 152 kts 239°
2026-04-23 19:02 53.66078 10.04981 907 ft 152 kts 237°
2026-04-23 19:02 53.65393 10.03598 688 ft 154 kts 237°
2026-04-23 19:03 53.64691 10.02204 475 ft 156 kts 235°
2026-04-23 19:03 53.64001 10.00790 246 ft 157 kts 234°
2026-04-23 19:03 53.63316 9.99396 67 ft 150 kts 231°
2026-04-23 19:03 53.62754 9.98243 62 ft 81 kts 230°
2026-04-23 19:04 53.62555 9.97846 62 ft 22 kts 229°
2026-04-23 19:04 53.62453 9.97815 62 ft 15 kts 141°
2026-04-23 19:04 53.62432 9.97939 62 ft 11 kts 83°
2026-04-23 19:04 53.62454 9.98072 62 ft 12 kts 63°
2026-04-23 19:05 53.62508 9.98186 62 ft 12 kts 49°
2026-04-23 19:05 53.62567 9.98303 62 ft 13 kts 49°
2026-04-23 19:05 53.62626 9.98420 62 ft 13 kts 50°
2026-04-23 19:05 53.62686 9.98543 62 ft 13 kts 51°
2026-04-23 19:06 53.62748 9.98671 62 ft 14 kts 50°
2026-04-23 19:06 53.62811 9.98797 62 ft 14 kts 50°
2026-04-23 19:06 53.62875 9.98927 62 ft 14 kts 50°
2026-04-23 19:06 53.62940 9.99059 62 ft 14 kts 50°
2026-04-23 19:07 53.63003 9.99189 62 ft 11 kts 51°
2026-04-23 19:07 53.63047 9.99282 62 ft 9 kts 52°
2026-04-23 19:07 53.63075 9.99344 62 ft 4 kts 54°
2026-04-23 19:07 53.63080 9.99356 62 ft 0 kts 55°
2026-04-23 19:09 53.63083 9.99363 62 ft 2 kts 55°
2026-04-23 19:09 53.63101 9.99407 62 ft 6 kts 55°
2026-04-23 19:09 53.63139 9.99496 62 ft 11 kts 53°
2026-04-23 19:09 53.63180 9.99586 62 ft 8 kts 51°
2026-04-23 19:10 53.63211 9.99649 62 ft 7 kts 50°
2026-04-23 19:10 53.63250 9.99717 62 ft 9 kts 45°
2026-04-23 19:10 53.63298 9.99804 62 ft 10 kts 50°
2026-04-23 19:10 53.63348 9.99904 62 ft 11 kts 49°
2026-04-23 19:11 53.63401 10.00010 62 ft 11 kts 51°
2026-04-23 19:11 53.63421 10.00132 62 ft 10 kts 110°
2026-04-23 19:11 53.63380 10.00215 62 ft 8 kts 130°
2026-04-23 19:11 53.63371 10.00291 62 ft 4 kts 87°
2026-04-23 19:12 53.63372 10.00323 62 ft 4 kts 87°
2026-04-23 19:12 53.63373 10.00345 62 ft 0 kts 86°